Location: Marcé
(47.5801°N, 0.3280°W)
Time: 09:23:43
(UTC+01:00)

BlueWalker 3 - Pass Details

Date: 06 December 2022
Orbit: 499 x 517 km, 53.2° (Epoch: 29 January)

Event Time Altitude Azimuth Distance (km) Brightness Sun altitude
Rises 20:36:31 0° 296° (WNW) 2,624 6.5 -33.8°
Reaches altitude 10° 20:38:48 10° 289° (WNW) 1,731 5.4 -34.2°
Enters shadow 20:39:21 13° 286° (WNW) 1,531 5.1 -34.3°
